weather.gov     
National Weather Service

Regional Weather Roundup
NWS Homepage
This page is being discontinued on March 12, 2014.
The same data is available at this site. Please update your bookmarks.
Thank you, and we apologize for the inconvenience.
Please send an email to SR-SRH.Webmaster@noaa.gov with any concerns.


Current Version
Previous Version:    01  02  03  04  05  06  07  08  09  10  11  12  13  14  15  16  17  18  19  20  21  22  23  24  25  26  27  28  29  30  
   31  32  33  34  35  36  37  38  39  40  41  42  43  44  45  46  47  48  49  50  51  52  53  54  55  56  57  58  59  60  
[Printable]
495
ASUS43 KJKL 301519
RWRJKL

EAST KENTUCKY HOURLY WEATHER ROUNDUP
NATIONAL WEATHER SERVICE JACKSON KY
1100 AM EDT THU OCT 30 2014

NOTE: "FAIR" INDICATES FEW OR NO CLOUDS BELOW 12,000 FEET WITH
NO SIGNIFICANT WEATHER AND/OR OBSTRUCTIONS TO VISIBILITY.

* THESE REPORTS ARE NOT UNDER NWS QUALITY CONTROL AND MAY NOT
  REPORT WEATHER SUCH AS PRECIPITATION AND FOG.

KYZ079-080-083-085-087-088-110-112-115-119-120-301600
...EASTERN KENTUCKY...

CITY           SKY/WX    TMP DP  RH WIND       PRES   REMARKS
JACKSON        SUNNY     46  34  62 CALM      30.15F
LONDON         SUNNY     50  36  58 VRB5      30.16S
SOMERSET*      SUNNY     48  36  61 E6        30.17F
MONTICELLO*    SUNNY     50  39  65 NE5       30.18F
WILLIAMSBURG*  SUNNY     45  39  81 CALM      30.16F
MIDDLESBORO*   CLOUDY    39  39 100 CALM      30.16S FOG
HARLAN APT*    MOSUNNY   43  43 100 CALM      30.14F
HAZARD APT*    SUNNY     46  37  71 CALM      30.15F
BLACK MTN*       N/A     39  36  87 NW2         N/A
PIKEVILLE APT* PTSUNNY   45  36  70 N3        30.14S
BIG SANDY*     CLOUDY    46  37  70 N5        30.16S
MOREHEAD APT*  CLOUDY    46  37  71 CALM      30.19R
ASHLAND*       PTSUNNY   50  36  57 N3        30.14F
$$

KYZ035-036-041-042-044-050-067-078-099-301600
...CENTRAL KENTUCKY...

CITY           SKY/WX    TMP DP  RH WIND       PRES   REMARKS
MT STERLING*   CLOUDY    45  37  76 CALM      30.18S
FLEMING/MASON* CLOUDY    46  36  66 CALM      30.18S
DANVILLE*      SUNNY     46  37  71 NE3       30.18S
RICHMOND*      SUNNY     46  37  71 CALM      30.16S
LEXINGTON      CLOUDY    49  38  65 CALM      30.17S
FRANKFORT      CLOUDY    46  37  71 CALM      30.17S
$$

KYZ091>093-OHZ055-061-077-WVZ005-015-034-035-042-301600
...SOUTHERN OHIO/WEST VIRGINIA...

CITY           SKY/WX    TMP DP  RH WIND       PRES   REMARKS
COVINGTON      MOSUNNY   49  35  58 CALM      30.16F
COLUMBUS       MOSUNNY   48  37  65 NW3       30.15S
DAYTON         CLOUDY    47  37  68 CALM      30.17F
WILMINGTON     CLOUDY    47  32  56 N3        30.16S
HUNTINGTON     CLOUDY    44  39  82 CALM      30.16S
CHARLESTON     CLOUDY    45  38  76 CALM      30.15S
PINEVILLE*     CLOUDY    42  42 100 MISG      30.18S
BECKLEY        CLOUDY    41  32  70 N7        30.11S
BLUEFIELD      PTSUNNY   45  32  60 NW5       30.10F
$$

VAZ002-007-008-TNZ017-027-036-066-071-301600
...SOUTHWEST VIRGINIA/EAST TENNESSEE...

CITY           SKY/WX    TMP DP  RH WIND       PRES   REMARKS
WISE*          SUNNY     45  32  61 N8        30.12S
JONESVILLE*    SUNNY     46  41  81 CALM      30.15F
ABINGDON*      PTSUNNY   44  44 100 SE3       30.11S
BRISTOL        PTSUNNY   43  42  97 VRB3      30.12F FOG
KNOXVILLE      SUNNY     50  42  74 CALM      30.11F
OAK RIDGE      SUNNY     51  43  74 CALM      30.13F
CROSSVILLE     SUNNY     49  36  61 NW5       30.14S
NASHVILLE      SUNNY     52  40  63 CALM      30.18S
$$

...KEY TO REMARKS...
VSB - VISIBILITY IN MILES
WCI - WIND CHILL INDEX
HX  - HEAT INDEX

$$




U.S. Dept. of Commerce
NOAA National Weather Service
1325 East West Highway
Silver Spring, MD 20910
E-mail: w-nws.webmaster@noaa.gov
Page last modified: May 16, 2007
NATIONAL WEATHER SERVICE: for Safety, for Work, for Fun - FOR LIFE